Home > Weather > Scranton > Past weeks

Flag for USA Past Weather in Scranton, Pennsylvania, USA — Yesterday and Last 2 Weeks

Now
64 °F

Fog.


Feels Like: 64 °F
Forecast: 62 / 84 °F
Wind: No wind

Location: Barre - Scranton - Wilkes-Barre / Scranton International Airport

Current Time: May 30, 2016 at 11:59:42 PM

Latest Report: May 30, 2016 at 10:54 PM


Visibility: 4 mi

Pressure: 29.97 "Hg

Humidity: 97%

Dew Point: 63 °F

Location of ScrantonLocation

Past Weather in Scranton — Graph

°F

Scranton Temperature Yesterday

Maximum temperature yesterday: 87 °F (at 12:54 PM)
Minimum temperature yesterday: 68 °F (at 4:54 AM)
Average temperature yesterday: 78 °F

High & Low Weather Summary for the Past Weeks

 TemperatureHumidityPressure
High91 °F (May 28, 1:54 PM)97% (May 23, 1:54 AM)30.30 "Hg (May 23, 1:54 AM)
Low35 °F (May 16, 5:54 AM)21% (May 24, 2:54 PM)29.84 "Hg (May 23, 5:54 PM)
Average64 °F60%30.04 "Hg
* Reported May 15 10:54 PM — May 30 10:54 PM, Scranton, Weather by CustomWeather, © 2016

Note: Actual official high and low records may vary slightly from our data, if they occured in-between our weather recording intervals... More about our weather records

Advertising

Scranton Weather History for the Previous 24 Hours

Scroll right to see more
 ConditionsComfort  
Time TempWeatherWind HumidityBarometerVisibility
10:54 PM
Mon, May 30
64 °FFog.No wind97%29.97 "Hg4 mi
9:54 PM65 °FFog.No wind97%29.96 "Hg4 mi
9:04 PM67 °FFog.No wind97%29.97 "Hg5 mi
7:54 PM68 °FScattered clouds.No wind90%29.94 "Hg8 mi
6:54 PM68 °FLight rain. Partly sunny.No wind90%29.93 "Hg9 mi
5:54 PM72 °FMostly cloudy.12 mph73%29.94 "Hg9 mi
4:54 PM79 °FPartly sunny.10 mph54%29.90 "Hg9 mi
3:54 PM85 °FSunny.8 mph40%29.88 "Hg10 mi
2:54 PM83 °FSunny.8 mph44%29.91 "Hg10 mi
1:54 PM82 °FSunny.6 mph48%29.92 "Hg10 mi
12:54 PM79 °FSunny.3 mph56%29.94 "Hg10 mi
11:54 AM76 °FSunny.6 mph64%29.96 "Hg10 mi
10:54 AM72 °FSunny.6 mph71%29.97 "Hg10 mi
9:54 AM70 °FSunny.3 mph79%29.99 "Hg10 mi
8:54 AM67 °FScattered clouds.5 mph85%30.01 "Hg9 mi
7:54 AM65 °FPartly sunny.No wind91%30.01 "Hg7 mi
7:01 AM63 °FFog.5 mph97%30.03 "Hg5 mi
5:54 AM63 °FPassing clouds.No wind97%29.98 "Hg7 mi
4:54 AM63 °FLight rain. Overcast.No wind90%29.98 "Hg8 mi
3:54 AM64 °FLight rain. Fog.No wind94%30.00 "Hg3 mi
2:54 AM66 °FRain. Fog.6 mph93%30.00 "Hg3 mi
1:54 AM68 °FLight rain. Fog.6 mph87%30.01 "Hg6 mi
12:54 AM69 °FLight rain. Mostly cloudy.6 mph84%30.02 "Hg9 mi
11:54 PM
Sun, May 29
71 °FLight rain. Partly cloudy.7 mph76%30.03 "Hg10 mi
Weather by CustomWeather, © 2016

See weather overviewHow to use our weather pages